CZ-3C DEB, 40853

Orbit data source: Space-Track

CZ-3C DEB, 40853 is space debris in HEO originally from a launch on Fri, 24 Feb 2012 UTC launched from the Xichang Space Center, China (XSC). Debris objects in space refer to the collection of defunct objects orbiting the Earth. Examples of debris include non-operational satellites, rocket bodies, and fragments generated from explosions, collisions, or faulty payload assembly.

Loading next visibility...
Identifier
40853, 2012-008T
Orbit
HEO
Country
Flag of CNCN / PRC
Related business
Manufacturer
CALT
Mission
Spacecraft
Bus & Motor
Unknown
Mass
Unknown
Launch date (UTC)
2012-02-24 (14 years ago)
Launch vehicle
Unknown
Launch site
Xichang Space Center, China (XSC)
Object type
Payload
Rocket body
Debris
Shape & HBR
Unknown shape, 0.1 m
Radar Cross Section
Medium (>0.1 m² and <1 m²)

Expand to show TLE details & history
Last TLE update: 9 hours ago

TLE from 9 hours ago
0 CZ-3C DEB
1 40853U 12008T   26120.15455725 -.00000039  00000-0  23187-2 0  9992
2 40853  20.8955  59.3431 7049443 123.1837 324.0178  2.27921421 96754
Epoch: 2026-04-30T03:42Z
TLE epoch observation values (Epoch: 2026-04-30T03:42:33.746Z)
Latitude
0.00006°
Longitude
145.52115°
Altitude
13,628.54 km
Speed
4.848 km/s
True Right ascension
03h 57m 04s
True Declination
0° 00' 00"
Sunlit
Object was in daylight at epoch
Visualization orbit readout
Latitude
Unknown
Longitude
Unknown
Altitude
Unknown
Speed
Unknown
Apparent Right ascension
Unknown
Apparent Declination
Unknown
Sunlit
N/A
Visualization observer readout
Local Sidereal Time
20:13:00
Azimuth
Unknown
Elevation
Unknown
Doppler factor
Unknown
Orbital elements
Apogee altitude
35,212.458 km
Perigee altitude
819.483 km
Semi-major axis
24,394.108 km
Eccentricity
0.70494
Inclination
20.8955°
RAAN
59.3431°
Arg. of periapsis
123.1837°
True anomaly
236.9323°
Mean anomaly
324.0178°
Eccentric anomaly
285.00457°
Mean motion
0.56966 °/min
Orbital period
631.96 mins
BSTAR
0.0023187
Loading maneuver chart data...
Computing Atmospheric mass density...
Loading historical data...
Loading historical data...
Loading historical data...
Loading historical data...
Loading historical data...
Loading historical data...
Loading historical data...

Documentation

Showing up to 5 results
|